• In Hungary
  • List of Countries
  • For 7 days
  • Water Temperature
  • Satellite Maps
  • Weather Map
  • News
  • Weather Widgets
  • user-avatar
    Login

    Hourly Weather Karonga

    Today, 26 September, Wednesday

    Time Temperature Precipitation Wind Pressure Humidity
    00:00 +25°C° 0 mm 3 mps 719 mmHg 71%
    01:00 +24°C° 0 mm 3 mps 719 mmHg 74%
    02:00 +23°C° 0 mm 2 mps 719 mmHg 79%
    03:00 +23°C° 0 mm 2 mps 719 mmHg 80%
    04:00 +23°C° 0 mm 2 mps 719 mmHg 82%
    05:00 +23°C° 0 mm 2 mps 719 mmHg 83%
    06:00 +25°C° 0 mm 2 mps 720 mmHg 73%
    07:00 +27°C° 0 mm 2 mps 720 mmHg 64%
    08:00 +29°C° 0 mm 2 mps 720 mmHg 54%
    09:00 +31°C° 0 mm 2 mps 720 mmHg 47%
    10:00 +34°C° 0 mm 2 mps 720 mmHg 40%
    11:00 +37°C° 0 mm 3 mps 719 mmHg 33%
    12:00 +37°C° 0 mm 3 mps 718 mmHg 31%
    13:00 +38°C° 0 mm 3 mps 717 mmHg 29%
    14:00 +38°C° 0 mm 3 mps 717 mmHg 28%
    15:00 +37°C° 0 mm 3 mps 716 mmHg 30%
    16:00 +36°C° 0 mm 3 mps 716 mmHg 33%
    17:00 +34°C° 0 mm 3 mps 716 mmHg 35%
    18:00 +33°C° 0 mm 3 mps 716 mmHg 40%
    19:00 +30°C° 0 mm 3 mps 717 mmHg 44%
    20:00 +28°C° 0 mm 3 mps 717 mmHg 49%
    21:00 +28°C° 0 mm 3 mps 718 mmHg 50%
    22:00 +28°C° 0 mm 3 mps 718 mmHg 52%
    23:00 +27°C° 0 mm 3 mps 719 mmHg 54%

    Tomorrow, 27 September, Thursday

    Time Temperature Precipitation Wind Pressure Humidity
    00:00 +27°C° 0 mm 3 mps 718 mmHg 57%
    01:00 +26°C° 0 mm 3 mps 718 mmHg 60%
    02:00 +26°C° 0 mm 3 mps 718 mmHg 63%
    03:00 +25°C° 0 mm 3 mps 718 mmHg 66%
    04:00 +25°C° 0 mm 3 mps 718 mmHg 70%
    05:00 +24°C° 0 mm 3 mps 718 mmHg 74%
    06:00 +26°C° 0 mm 3 mps 719 mmHg 69%
    07:00 +28°C° 0 mm 3 mps 719 mmHg 63%
    08:00 +30°C° 0 mm 3 mps 720 mmHg 58%
    09:00 +31°C° 0 mm 3 mps 720 mmHg 52%
    10:00 +34°C° 0 mm 4 mps 719 mmHg 46%
    11:00 +36°C° 0 mm 4 mps 719 mmHg 40%
    12:00 +36°C° 0 mm 5 mps 718 mmHg 37%
    13:00 +37°C° 0 mm 5 mps 717 mmHg 35%
    14:00 +37°C° 0 mm 5 mps 716 mmHg 32%
    15:00 +36°C° 0 mm 5 mps 716 mmHg 34%
    16:00 +35°C° 0 mm 5 mps 716 mmHg 36%
    17:00 +34°C° 0 mm 5 mps 716 mmHg 38%
    18:00 +32°C° 0 mm 5 mps 717 mmHg 43%
    19:00 +30°C° 0 mm 4 mps 717 mmHg 47%
    20:00 +28°C° 0 mm 4 mps 718 mmHg 52%
    21:00 +28°C° 0 mm 4 mps 719 mmHg 54%
    22:00 +27°C° 0 mm 4 mps 719 mmHg 55%
    23:00 +27°C° 0 mm 3 mps 719 mmHg 57%

    Day after tomorrow, 28 September, Friday

    Time Temperature Precipitation Wind Pressure Humidity
    00:00 +26°C° 0 mm 3 mps 719 mmHg 60%
    01:00 +26°C° 0 mm 3 mps 718 mmHg 63%
    02:00 +25°C° 0 mm 3 mps 718 mmHg 66%
    03:00 +25°C° 0 mm 3 mps 718 mmHg 70%
    04:00 +24°C° 0 mm 3 mps 718 mmHg 74%
    05:00 +24°C° 0 mm 3 mps 718 mmHg 77%
    06:00 +26°C° 0 mm 3 mps 719 mmHg 70%
    07:00 +27°C° 0 mm 3 mps 719 mmHg 63%
    08:00 +29°C° 0 mm 3 mps 720 mmHg 55%
    09:00 +32°C° 0 mm 4 mps 719 mmHg 47%
    10:00 +34°C° 0 mm 4 mps 719 mmHg 39%
    11:00 +36°C° 0 mm 4 mps 719 mmHg 31%
    12:00 +37°C° 0 mm 4 mps 718 mmHg 28%
    13:00 +37°C° 0 mm 4 mps 717 mmHg 24%
    14:00 +38°C° 0 mm 4 mps 716 mmHg 20%
    15:00 +37°C° 0 mm 4 mps 716 mmHg 21%
    16:00 +35°C° 0 mm 4 mps 716 mmHg 22%
    17:00 +34°C° 0 mm 4 mps 715 mmHg 23%
    18:00 +33°C° 0 mm 4 mps 716 mmHg 27%
    19:00 +30°C° 0 mm 4 mps 717 mmHg 30%
    20:00 +28°C° 0 mm 4 mps 718 mmHg 33%
    21:00 +28°C° 0 mm 4 mps 718 mmHg 36%
    22:00 +27°C° 0 mm 3 mps 718 mmHg 39%
    23:00 +27°C° 0 mm 3 mps 718 mmHg 42%

    29 September, Saturday

    Time Temperature Precipitation Wind Pressure Humidity
    00:00 +26°C° 0 mm 3 mps 718 mmHg 46%
    01:00 +26°C° 0 mm 3 mps 717 mmHg 51%
    02:00 +25°C° 0 mm 3 mps 717 mmHg 56%
    03:00 +24°C° 0 mm 3 mps 717 mmHg 60%
    04:00 +24°C° 0 mm 3 mps 718 mmHg 65%
    05:00 +24°C° 0 mm 3 mps 718 mmHg 70%
    06:00 +25°C° 0 mm 2 mps 719 mmHg 63%
    07:00 +27°C° 0 mm 2 mps 719 mmHg 56%
    08:00 +29°C° 0 mm 2 mps 720 mmHg 50%
    09:00 +31°C° 0 mm 3 mps 719 mmHg 43%
    10:00 +34°C° 0 mm 3 mps 719 mmHg 36%
    11:00 +36°C° 0 mm 4 mps 719 mmHg 29%
    12:00 +37°C° 0 mm 4 mps 718 mmHg 27%
    13:00 +38°C° 0 mm 4 mps 717 mmHg 25%
    14:00 +38°C° 0 mm 4 mps 716 mmHg 22%
    15:00 +37°C° 0 mm 4 mps 716 mmHg 24%
    16:00 +36°C° 0 mm 4 mps 716 mmHg 26%
    17:00 +35°C° 0 mm 4 mps 716 mmHg 28%
    18:00 +33°C° 0 mm 4 mps 717 mmHg 32%
    19:00 +32°C° 0 mm 4 mps 718 mmHg 35%
    20:00 +29°C° 0 mm 4 mps 718 mmHg 39%
    21:00 +29°C° 0 mm 4 mps 719 mmHg 41%
    22:00 +28°C° 0 mm 4 mps 719 mmHg 44%
    23:00 +28°C° 0 mm 5 mps 719 mmHg 46%

    30 September, Sunday

    Time Temperature Precipitation Wind Pressure Humidity
    00:00 +27°C° 0 mm 5 mps 718 mmHg 49%
    01:00 +27°C° 0 mm 5 mps 718 mmHg 51%
    02:00 +26°C° 0 mm 5 mps 718 mmHg 54%
    03:00 +26°C° 0 mm 4 mps 718 mmHg 57%
    04:00 +25°C° 0 mm 4 mps 719 mmHg 61%
    05:00 +23°C° 0 mm 4 mps 719 mmHg 64%
    06:00 +26°C° 0 mm 4 mps 720 mmHg 59%
    07:00 +27°C° 0 mm 5 mps 721 mmHg 53%
    08:00 +29°C° 0 mm 5 mps 721 mmHg 48%
    09:00 +30°C° 0 mm 5 mps 721 mmHg 43%
    10:00 +33°C° 0 mm 6 mps 720 mmHg 38%
    11:00 +34°C° 0 mm 6 mps 719 mmHg 33%
    12:00 +35°C° 0 mm 6 mps 719 mmHg 32%
    13:00 +35°C° 0 mm 6 mps 718 mmHg 30%
    14:00 +36°C° 0 mm 6 mps 717 mmHg 29%
    15:00 +35°C° 0 mm 6 mps 717 mmHg 31%
    16:00 +34°C° 0 mm 6 mps 717 mmHg 32%
    17:00 +33°C° 0 mm 6 mps 718 mmHg 34%
    18:00 +30°C° 0 mm 5 mps 718 mmHg 39%
    19:00 +29°C° 0 mm 5 mps 719 mmHg 44%
    20:00 +27°C° 0 mm 4 mps 719 mmHg 49%
    21:00 +27°C° 0 mm 4 mps 719 mmHg 52%
    22:00 +26°C° 0 mm 4 mps 719 mmHg 54%
    23:00 +26°C° 0 mm 4 mps 719 mmHg 56%

    1 October, Monday

    Time Temperature Precipitation Wind Pressure Humidity
    00:00 +25°C° 0 mm 4 mps 719 mmHg 58%
    01:00 +25°C° 0 mm 4 mps 719 mmHg 60%
    02:00 +23°C° 0 mm 4 mps 718 mmHg 61%
    03:00 +23°C° 0 mm 4 mps 719 mmHg 66%
    04:00 +23°C° 0 mm 4 mps 719 mmHg 71%
    05:00 +22°C° 0 mm 5 mps 719 mmHg 76%
    06:00 +25°C° 0 mm 5 mps 720 mmHg 69%
    07:00 +27°C° 0 mm 5 mps 720 mmHg 61%
    08:00 +28°C° 0 mm 5 mps 721 mmHg 54%
    09:00 +30°C° 0 mm 5 mps 720 mmHg 50%
    10:00 +32°C° 0 mm 6 mps 720 mmHg 46%
    11:00 +33°C° 0 mm 6 mps 719 mmHg 42%
    12:00 +33°C° 0 mm 6 mps 719 mmHg 41%
    13:00 +33°C° 0 mm 6 mps 718 mmHg 41%
    14:00 +34°C° 0 mm 6 mps 717 mmHg 40%
    15:00 +33°C° 0 mm 6 mps 717 mmHg 43%
    16:00 +32°C° 0 mm 5 mps 717 mmHg 46%
    17:00 +30°C° 0 mm 5 mps 717 mmHg 50%
    18:00 +28°C° 0 mm 4 mps 718 mmHg 56%
    19:00 +27°C° 0 mm 4 mps 719 mmHg 62%
    20:00 +25°C° 0 mm 3 mps 719 mmHg 68%
    21:00 +25°C° 0 mm 3 mps 719 mmHg 70%
    22:00 +24°C° 0 mm 3 mps 719 mmHg 73%
    23:00 +24°C° 0 mm 3 mps 719 mmHg 75%
    Show more